sat.trackr.live / text

‹ back to catalog

STARLINK-34936

NORAD 65898 · 2025-224S

PAYLOAD ACTIVE UNKNOWN

§ Identity

Operator
Country
US
Launch date
2025-10-07
Launch site
AFETR
Launch vehicle
Mass (kg)
RCS (m²)

Purposes: comms

External: N2YO · Heavens-Above · Gunter

§ Orbital elements

Epoch: 2026-05-25T00:21:00.010080Z

Period
93.85 min
Inclination
53.1597°
Eccentricity
0.0000870
Mean motion
15.34398191 rev/d
Perigee alt
462.1 km
Apogee alt
463.3 km
Semi-major
6,840.8 km
B*
4.5729e-4
RAAN
15.8528°
Arg perigee
104.9183°
Mean anomaly
255.1916°
Rev number
3,657

§ Raw data

STARLINK-349361 65898U 25224S   26145.01458345  .00015104  00000+0  45729-3 0  99992 65898  53.1597  15.8528 0000870 104.9183 255.1916 15.34398191 36572

JSON: /api/v1/satellites/65898 · /tle

For live sub-satellite position, see the globe view (requires WebGL).

§ Visibility from observer

Set your observer location to see the next 7 days of passes ≥ 10°. The values pass through the URL so the page stays shareable.

No JS? Fill the form by hand. The geolocation button needs JavaScript.